Location: PSU-Greenbush Astrophysical Observatory
(37.5140°N, 94.9880°W)
Time: 09:20:07
(UTC-06:00)

Altair - Pass Details

Date: 25 January 2020
Orbit: 1502 x 1682 km, 47.2° (Epoch: 24 February)

Event Time Altitude Azimuth Distance (km) Brightness Sun altitude
Rises 15:57:38 0° 300° (WNW) 4,928 10.4 15.7°
Reaches altitude 10° 16:00:58 10° 296° (WNW) 3,926 10.1 15.2°
Maximum altitude 16:10:24 48° 226° (SW) 2,047 9.3 13.8°
Drops below altitude 10° 16:19:33 10° 156° (SSE) 3,795 9.8 12.3°
Sets 16:22:43 0° 150° (SSE) 4,753 10.2 11.8°
